Orbital Elements at Epoch 2459200.5 (2020-Dec-17.0) TDB
Reference: JPL 26 (heliocentric ecliptic J2000)
Element | Value | Uncertainty (1-sigma) | Units |
e | .1922175938128979 | 4.202e-08 | |
a | 2.746463461794299 | 1.3503e-08 | au |
q | 2.218544863673157 | 1.1563e-07 | au |
i | 12.87578040031786 | 5.367e-06 | deg |
node | 9.388054809314003 | 1.6103e-05 | deg |
peri | 27.65084676770194 | 1.9853e-05 | deg |
M | 212.8172735111287 | 1.365e-05 | deg |
tp | 2459880.194112915812 (2022-Oct-27.69411292) | 6.6058e-05 | TDB |
period | 1662.490473487688 4.55 | 1.226e-05 3.357e-08 | d yr |
n | .2165425942229714 | 1.5969e-09 | deg/d |
Q | 3.27438205991544 | 1.6098e-08 | au |
|
| | Orbit Determination Parameters
Additional Information
|